Simultaneous Nadir Overpasses (SNOs) Predictions

Prediction of SNOs between METOP-B and NOAA-19 Satellite Orbit:

Table of predicted SNOs for the next 14.0 days since TLE Epoch: 3/27/2020
Index Date (METOP-B) Time (METOP-B) Lat,Lon (METOP-B) SZA (METOP-B ) Date (NOAA-19) Time (NOAA-19) Lat,Lon (NOAA-19) SZA (NOAA-19 ) Distance(km) Time Diff (sec)
1 04/05/2020 12:03:44 79.90, 20.39 74.15 04/05/2020 12:02:29 79.89, 20.47 74.13 1.79 75
2 04/05/2020 12:54:25 -79.90,-172.29 105.87 04/05/2020 12:53:31 -79.90,-172.42 105.88 2.63 54
3 04/05/2020 13:45:06 79.88, -5.07 74.11 04/05/2020 13:44:30 79.90, -5.13 74.11 2.08 36
4 04/05/2020 14:35:47 -79.88, 162.26 105.91 04/05/2020 14:35:31 -79.89, 162.28 105.91 0.54 16
5 04/05/2020 15:26:28 79.87, -30.53 74.06 04/05/2020 15:26:30 79.88, -30.43 74.08 2.31 2
6 04/05/2020 16:17:09 -79.87, 136.80 105.96 04/05/2020 16:17:31 -79.87, 136.98 105.94 3.45 22
7 04/05/2020 17:07:49 79.89, -55.69 74.06 04/05/2020 17:08:30 79.87, -55.73 74.05 2.67 41
8 04/05/2020 17:58:31 -79.86, 111.34 106.00 04/05/2020 17:59:32 -79.88, 111.37 105.96 2.26 61




NCC Satellite Simultaneous Nadir Overpasses (SNOs) Prediction Service
